TimeCDT,TemperatureF,Dew PointF,Humidity,Sea Level PressureIn,VisibilityMPH,Wind Direction,Wind SpeedMPH,Gust SpeedMPH,PrecipitationIn,Events,Conditions,WindDirDegrees,DateUTC
1:53 AM,54.0,37.9,55,30.03,10.0,NNE,12.7,-,N/A,,Clear,20,2012-10-12 06:53:00
2:53 AM,51.1,37.0,59,30.05,10.0,North,15.0,-,N/A,,Clear,10,2012-10-12 07:53:00
3:53 AM,50.0,35.1,57,30.06,10.0,North,13.8,-,N/A,,Mostly Cloudy,360,2012-10-12 08:53:00
4:53 AM,48.9,34.0,56,30.10,10.0,North,15.0,-,N/A,,Overcast,10,2012-10-12 09:53:00
5:53 AM,48.0,34.0,58,30.11,10.0,North,16.1,-,N/A,,Overcast,360,2012-10-12 10:53:00
6:53 AM,46.9,33.1,59,30.14,10.0,North,13.8,-,N/A,,Overcast,350,2012-10-12 11:53:00
7:53 AM,46.0,32.0,58,30.15,10.0,North,11.5,-,N/A,,Overcast,10,2012-10-12 12:53:00
8:53 AM,46.0,32.0,58,30.17,10.0,North,9.2,-,N/A,,Overcast,10,2012-10-12 13:53:00
9:53 AM,46.9,32.0,56,30.18,10.0,North,9.2,-,N/A,,Overcast,360,2012-10-12 14:53:00
10:53 AM,46.9,33.1,59,30.20,10.0,West,3.5,-,N/A,,Overcast,270,2012-10-12 15:53:00
11:53 AM,48.9,34.0,56,30.17,10.0,Calm,Calm,-,N/A,,Clear,0,2012-10-12 16:53:00
12:53 PM,48.9,36.0,61,30.14,10.0,Calm,Calm,-,0.00,,Mostly Cloudy,0,2012-10-12 17:53:00
1:53 PM,52.0,37.9,59,30.06,10.0,North,9.2,-,0.01,,Scattered Clouds,10,2012-10-12 18:53:00
2:53 PM,53.1,41.0,64,30.05,10.0,ENE,6.9,-,0.00,,Mostly Cloudy,60,2012-10-12 19:53:00
3:53 PM,55.0,39.0,55,30.05,10.0,SSE,17.3,24.2,N/A,,Scattered Clouds,150,2012-10-12 20:53:00
5:53 PM,59.0,42.1,53,30.01,10.0,SSE,6.9,-,N/A,,Overcast,150,2012-10-12 22:53:00
6:53 PM,59.0,44.1,58,29.98,10.0,SSE,10.4,-,N/A,,Scattered Clouds,150,2012-10-12 23:53:00
7:53 PM,57.0,46.9,69,29.96,10.0,SSE,4.6,-,N/A,,Mostly Cloudy,160,2012-10-13 00:53:00
9:03 PM,57.2,46.4,67,30.01,10.0,SE,4.6,-,N/A,,Overcast,140,2012-10-13 02:03:00
9:53 PM,57.9,48.0,70,29.96,10.0,ENE,4.6,-,N/A,,Overcast,60,2012-10-13 02:53:00
10:21 PM,59.0,50.0,72,29.99,10.0,SE,10.4,16.1,N/A,,Overcast,130,2012-10-13 03:21:00
10:53 PM,57.9,48.0,70,29.90,10.0,SE,12.7,-,N/A,,Overcast,130,2012-10-13 03:53:00
11:34 PM,57.2,51.8,82,29.90,10.0,SSE,12.7,-,N/A,,Scattered Clouds,150,2012-10-13 04:34:00
11:53 PM,57.9,54.0,87,29.87,10.0,SSE,12.7,-,N/A,,Partly Cloudy,160,2012-10-13 04:53:00